Date,TemperatureHighF,TemperatureAvgF,TemperatureLowF,DewpointHighF,DewpointAvgF,DewpointLowF,HumidityHigh,HumidityAvg,HumidityLow,PressureMaxIn,PressureMinIn,WindSpeedMaxMPH,WindSpeedAvgMPH,GustSpeedMaxMPH,PrecipitationSumIn
2013-8-1,86.6,76.3,68.2,62.8,55.7,50.5,80,51,33,29.99,29.84,8,2,13,0.04
2013-8-2,92.3,74.2,64.1,62.2,58.8,51.4,90,63,27,29.95,29.79,9,2,9,0.15
2013-8-3,93.2,76.2,61.5,60.2,55.5,47.9,92,54,24,29.98,29.83,6,1,6,0.00
2013-8-4,93.8,78.7,65.7,61.3,55.7,46.6,85,49,23,29.94,29.77,9,2,15,0.15
2013-8-5,90.4,74.8,62.1,62.3,57.8,53.1,92,60,31,29.96,29.80,5,1,10,0.03
2013-8-6,88.6,75.2,66.0,56.0,53.0,45.3,63,47,23,29.89,29.78,7,2,15,0.00
2013-8-7,82.4,71.6,60.5,56.9,54.2,50.8,78,56,35,29.92,29.82,8,2,13,0.00
2013-8-8,86.2,73.4,61.4,56.4,50.7,41.3,78,49,23,29.93,29.82,10,3,16,0.00
2013-8-9,89.1,74.1,58.5,50.9,46.6,37.8,71,41,18,30.01,29.89,6,2,8,0.00
2013-8-10,84.8,71.7,62.3,55.0,50.8,43.5,69,50,31,30.14,29.94,11,3,16,0.00
2013-8-11,84.8,71.5,61.0,56.8,53.2,47.1,84,56,28,30.16,29.95,6,2,10,0.01
2013-8-12,85.3,73.3,66.7,58.4,54.9,50.1,73,54,32,30.06,29.90,8,2,12,0.00
2013-8-13,88.6,75.2,61.6,56.4,50.5,41.8,73,45,22,30.04,29.89,6,1,9,0.00
2013-8-14,89.3,75.1,60.9,57.9,50.6,39.7,77,46,18,30.01,29.86,15,2,20,0.00
2013-8-15,92.3,76.7,60.9,55.4,49.4,38.2,75,42,16,30.02,29.86,5,2,8,0.00
2013-8-16,95.2,81.0,68.1,53.2,44.7,25.8,51,31,9,29.99,29.82,7,2,10,0.00
2013-8-17,95.0,82.5,72.1,50.5,45.4,38.2,42,29,14,29.94,29.74,11,2,13,0.00
2013-8-18,93.4,80.3,68.0,52.6,48.7,43.0,57,35,19,29.94,29.78,6,1,10,0.00
2013-8-19,94.8,79.2,66.9,56.1,49.9,42.6,59,38,18,29.93,29.75,10,2,10,0.01
2013-8-20,92.2,74.3,63.2,66.6,56.6,50.2,87,57,25,29.94,29.77,7,2,12,0.29
2013-8-21,89.0,76.0,62.0,59.9,53.8,47.3,83,50,28,29.96,29.83,8,1,9,0.00
2013-8-22,91.0,79.3,64.1,53.3,47.7,37.6,59,35,23,29.98,29.78,5,2,12,0.00
2013-8-23,86.7,75.0,58.7,50.1,45.8,35.1,62,36,22,29.94,29.78,10,2,17,0.00
2013-8-24,83.9,74.8,66.8,59.2,53.2,48.3,68,48,33,29.98,29.84,9,2,13,0.00
2013-8-25,82.5,72.2,66.7,63.0,58.7,54.7,85,64,40,30.05,29.96,7,1,12,0.13
2013-8-26,88.3,75.2,60.7,61.7,55.9,46.6,92,56,30,30.10,29.92,6,2,9,0.01
2013-8-27,89.3,77.1,61.2,55.6,51.2,43.2,78,43,26,29.99,29.81,5,2,13,0.00
2013-8-28,88.3,76.4,67.9,56.3,52.3,47.7,57,44,28,29.99,29.85,7,2,11,0.00
2013-8-29,86.3,76.8,69.9,58.7,54.6,51.7,60,47,31,30.03,29.91,7,3,13,0.00
2013-8-30,92.3,79.5,65.0,61.5,54.9,44.4,82,47,20,30.00,29.82,5,2,8,0.00
2013-8-31,94.8,80.6,65.2,57.8,52.8,45.0,72,42,19,29.89,29.69,4,1,10,0.00